• In Germany
  • List of Countries
  • For 7 days
  • Water Temperature
  • Satellite Maps
  • Weather Map
  • Weather Widgets
  • user-avatar
    Login

    Hourly Weather Etchmiadzin

    Today, 17 August, Thursday

    Time Temperature Precipitation Wind Pressure Humidity
    00:00 +24°C° 0.7 mm 2 mps 686 mmHg 66%
    01:00 +23°C° 0.3 mm 2 mps 686 mmHg 68%
    02:00 +23°C° 0.3 mm 1 mps 686 mmHg 70%
    03:00 +22°C° 0 mm 1 mps 685 mmHg 74%
    04:00 +22°C° 0 mm 1 mps 685 mmHg 73%
    05:00 +22°C° 0 mm 1 mps 685 mmHg 72%
    06:00 +22°C° 0 mm 1 mps 685 mmHg 71%
    07:00 +24°C° 0.3 mm 1 mps 685 mmHg 66%
    08:00 +25°C° 0.3 mm 2 mps 685 mmHg 60%
    09:00 +26°C° 0.3 mm 2 mps 685 mmHg 54%
    10:00 +28°C° 0.3 mm 2 mps 685 mmHg 49%
    11:00 +29°C° 0.3 mm 2 mps 685 mmHg 44%
    12:00 +31°C° 0.3 mm 2 mps 686 mmHg 39%
    13:00 +32°C° 0.5 mm 2 mps 685 mmHg 37%
    14:00 +32°C° 0.5 mm 2 mps 685 mmHg 35%
    15:00 +34°C° 0.5 mm 2 mps 685 mmHg 34%
    16:00 +32°C° 0.4 mm 2 mps 685 mmHg 37%
    17:00 +31°C° 0.4 mm 2 mps 685 mmHg 40%
    18:00 +31°C° 0.4 mm 2 mps 684 mmHg 43%
    19:00 +29°C° 0.3 mm 2 mps 685 mmHg 50%
    20:00 +27°C° 0.3 mm 2 mps 685 mmHg 56%
    21:00 +25°C° 0.3 mm 3 mps 685 mmHg 63%
    22:00 +25°C° 0.1 mm 3 mps 685 mmHg 65%
    23:00 +24°C° 0.1 mm 2 mps 685 mmHg 67%

    Tomorrow, 18 August, Friday

    Time Temperature Precipitation Wind Pressure Humidity
    00:00 +24°C° 0.1 mm 2 mps 685 mmHg 69%
    01:00 +23°C° 0 mm 2 mps 685 mmHg 70%
    02:00 +23°C° 0 mm 2 mps 685 mmHg 71%
    03:00 +21°C° 0 mm 2 mps 685 mmHg 72%
    04:00 +21°C° 0 mm 2 mps 685 mmHg 70%
    05:00 +21°C° 0 mm 2 mps 685 mmHg 69%
    06:00 +22°C° 0 mm 1 mps 685 mmHg 68%
    07:00 +25°C° 0 mm 1 mps 685 mmHg 60%
    08:00 +27°C° 0 mm 1 mps 686 mmHg 52%
    09:00 +29°C° 0 mm 1 mps 686 mmHg 43%
    10:00 +31°C° 0 mm 2 mps 686 mmHg 39%
    11:00 +32°C° 0 mm 2 mps 686 mmHg 34%
    12:00 +34°C° 0 mm 2 mps 686 mmHg 30%
    13:00 +35°C° 0 mm 2 mps 686 mmHg 28%
    14:00 +36°C° 0 mm 2 mps 685 mmHg 26%
    15:00 +36°C° 0 mm 2 mps 685 mmHg 24%
    16:00 +35°C° 0 mm 2 mps 685 mmHg 27%
    17:00 +35°C° 0 mm 2 mps 685 mmHg 30%
    18:00 +34°C° 0 mm 2 mps 685 mmHg 32%
    19:00 +31°C° 0 mm 2 mps 685 mmHg 38%
    20:00 +29°C° 0 mm 3 mps 686 mmHg 43%
    21:00 +28°C° 0 mm 3 mps 686 mmHg 49%
    22:00 +27°C° 0 mm 3 mps 686 mmHg 51%
    23:00 +26°C° 0 mm 3 mps 686 mmHg 53%

    Day after tomorrow, 19 August, Saturday

    Time Temperature Precipitation Wind Pressure Humidity
    00:00 +25°C° 0 mm 3 mps 686 mmHg 55%
    01:00 +25°C° 0 mm 3 mps 686 mmHg 55%
    02:00 +24°C° 0 mm 2 mps 686 mmHg 55%
    03:00 +24°C° 0 mm 2 mps 686 mmHg 56%
    04:00 +23°C° 0 mm 2 mps 687 mmHg 55%
    05:00 +23°C° 0 mm 2 mps 687 mmHg 55%
    06:00 +23°C° 0 mm 2 mps 687 mmHg 55%
    07:00 +26°C° 0 mm 2 mps 687 mmHg 48%
    08:00 +28°C° 0 mm 2 mps 688 mmHg 40%
    09:00 +30°C° 0 mm 2 mps 688 mmHg 33%
    10:00 +31°C° 0 mm 2 mps 688 mmHg 31%
    11:00 +34°C° 0 mm 2 mps 688 mmHg 28%
    12:00 +35°C° 0 mm 3 mps 688 mmHg 25%
    13:00 +36°C° 0 mm 3 mps 687 mmHg 23%
    14:00 +36°C° 0 mm 3 mps 687 mmHg 22%
    15:00 +37°C° 0 mm 3 mps 687 mmHg 21%
    16:00 +36°C° 0 mm 3 mps 687 mmHg 23%
    17:00 +35°C° 0 mm 3 mps 687 mmHg 26%
    18:00 +34°C° 0 mm 2 mps 687 mmHg 28%
    19:00 +31°C° 0 mm 3 mps 687 mmHg 33%
    20:00 +29°C° 0 mm 3 mps 687 mmHg 38%
    21:00 +27°C° 0 mm 3 mps 688 mmHg 43%
    22:00 +26°C° 0 mm 3 mps 688 mmHg 43%
    23:00 +26°C° 0 mm 3 mps 688 mmHg 44%

    20 August, Sunday

    Time Temperature Precipitation Wind Pressure Humidity
    00:00 +25°C° 0 mm 3 mps 688 mmHg 44%
    01:00 +25°C° 0 mm 2 mps 688 mmHg 45%
    02:00 +24°C° 0 mm 2 mps 688 mmHg 45%
    03:00 +24°C° 0 mm 2 mps 687 mmHg 45%
    04:00 +23°C° 0 mm 2 mps 688 mmHg 45%
    05:00 +23°C° 0 mm 2 mps 688 mmHg 46%
    06:00 +23°C° 0 mm 2 mps 688 mmHg 46%
    07:00 +26°C° 0 mm 2 mps 688 mmHg 41%
    08:00 +28°C° 0 mm 2 mps 688 mmHg 35%
    09:00 +31°C° 0 mm 2 mps 688 mmHg 29%
    10:00 +32°C° 0 mm 2 mps 688 mmHg 27%
    11:00 +34°C° 0 mm 2 mps 688 mmHg 24%
    12:00 +36°C° 0 mm 3 mps 688 mmHg 22%
    13:00 +36°C° 0 mm 3 mps 687 mmHg 20%
    14:00 +37°C° 0 mm 3 mps 687 mmHg 19%
    15:00 +37°C° 0 mm 3 mps 687 mmHg 18%
    16:00 +36°C° 0 mm 3 mps 687 mmHg 21%
    17:00 +35°C° 0 mm 2 mps 686 mmHg 24%
    18:00 +34°C° 0 mm 2 mps 686 mmHg 27%
    19:00 +31°C° 0 mm 2 mps 687 mmHg 31%
    20:00 +29°C° 0 mm 3 mps 687 mmHg 35%
    21:00 +27°C° 0 mm 3 mps 687 mmHg 39%
    22:00 +26°C° 0 mm 3 mps 687 mmHg 40%
    23:00 +26°C° 0 mm 3 mps 687 mmHg 41%

    21 August, Monday

    Time Temperature Precipitation Wind Pressure Humidity
    00:00 +25°C° 0 mm 2 mps 687 mmHg 42%
    01:00 +25°C° 0 mm 2 mps 687 mmHg 42%
    02:00 +24°C° 0 mm 2 mps 687 mmHg 42%
    03:00 +24°C° 0 mm 2 mps 687 mmHg 42%
    04:00 +23°C° 0 mm 2 mps 687 mmHg 43%
    05:00 +23°C° 0 mm 1 mps 687 mmHg 43%
    06:00 +23°C° 0 mm 1 mps 687 mmHg 44%
    07:00 +26°C° 0 mm 1 mps 687 mmHg 38%
    08:00 +28°C° 0 mm 1 mps 687 mmHg 32%
    09:00 +31°C° 0 mm 1 mps 687 mmHg 26%
    10:00 +32°C° 0 mm 2 mps 687 mmHg 24%
    11:00 +35°C° 0 mm 2 mps 687 mmHg 21%
    12:00 +36°C° 0 mm 2 mps 687 mmHg 19%
    13:00 +37°C° 0 mm 2 mps 686 mmHg 18%
    14:00 +37°C° 0 mm 2 mps 686 mmHg 17%
    15:00 +38°C° 0 mm 2 mps 685 mmHg 16%
    16:00 +37°C° 0 mm 2 mps 685 mmHg 19%
    17:00 +36°C° 0 mm 2 mps 685 mmHg 21%
    18:00 +35°C° 0 mm 2 mps 685 mmHg 24%
    19:00 +32°C° 0 mm 2 mps 685 mmHg 28%
    20:00 +30°C° 0 mm 2 mps 685 mmHg 31%
    21:00 +28°C° 0 mm 2 mps 685 mmHg 35%
    22:00 +27°C° 0 mm 2 mps 685 mmHg 37%
    23:00 +27°C° 0 mm 2 mps 685 mmHg 39%

    22 August, Tuesday

    Time Temperature Precipitation Wind Pressure Humidity
    00:00 +26°C° 0 mm 2 mps 685 mmHg 41%
    01:00 +26°C° 0 mm 2 mps 685 mmHg 41%
    02:00 +25°C° 0 mm 2 mps 685 mmHg 41%
    03:00 +25°C° 0 mm 1 mps 685 mmHg 41%
    04:00 +25°C° 0 mm 1 mps 685 mmHg 40%
    05:00 +25°C° 0 mm 1 mps 685 mmHg 38%
    06:00 +25°C° 0 mm 1 mps 685 mmHg 37%
    07:00 +28°C° 0 mm 2 mps 685 mmHg 32%
    08:00 +30°C° 0 mm 2 mps 686 mmHg 27%
    09:00 +34°C° 0 mm 2 mps 686 mmHg 22%
    10:00 +36°C° 0 mm 3 mps 686 mmHg 20%
    11:00 +37°C° 0 mm 3 mps 685 mmHg 19%
    12:00 +38°C° 0 mm 3 mps 685 mmHg 18%
    13:00 +39°C° 0 mm 3 mps 685 mmHg 17%
    14:00 +39°C° 0 mm 3 mps 684 mmHg 17%
    15:00 +40°C° 0 mm 3 mps 684 mmHg 16%
    16:00 +39°C° 0 mm 3 mps 684 mmHg 19%
    17:00 +37°C° 0 mm 3 mps 683 mmHg 21%
    18:00 +36°C° 0 mm 2 mps 683 mmHg 24%
    19:00 +34°C° 0 mm 3 mps 683 mmHg 28%
    20:00 +31°C° 0 mm 3 mps 683 mmHg 32%
    21:00 +29°C° 0 mm 3 mps 684 mmHg 35%
    22:00 +29°C° 0 mm 3 mps 684 mmHg 37%
    23:00 +28°C° 0 mm 3 mps 684 mmHg 39%
    Show more